Meteopurmerend
purmerend
Purmerend - Baaienwijk



My webcam  My webcam


waarschuwing voor Onweer Meer informatie blitzortung!


Regen radar Meer informatie rain snow radar


Bezoek onze andere website:

CandyAppleRed WebdesignWebdesign Purmerend Candy Apple Red

MeteopurmerendBlog

Template documentation
and downloads



Onweer van: 26-07-2021 13:00 tot: 21:00 waarschuwing voor: Onweer niveau: Geel info button
Enkele onweersbuien, lokaal met hagel en veel neerslag in korte tijd.Kans op blikseminslag, hagel en veel neerslag in korte tijd.Verkeer en buitenactiviteiten kunnen hinder ondervinden.Mijd open water en open gebied, schuil niet onder bomen.Volg weerberichten en waarschuwingen.

15 daagse weersverwachting Ballerup (DK)

  • Overzicht
  • Per uur
  • 15 dagen
  • Extra
  • Vergelijk
  • Kaarten
  • Dagkaart
  • Meer »
  • Info
  • Statistieken
  • Directe link
    Temp 6h Neerslag Wind  
 05:08     21:27    Daglengte: 16:19 Vandaag
20:00
24°
 
3
 05:10     21:25    Daglengte: 16:15 Morgen
02:00
20°
 
3
08:00
20°
 
2
14:00
24°
2.5 mm
4
warningclass
20:00
21°
1.3 mm
4
 05:12     21:24    Daglengte: 16:12 Woensdag 28 Jul
02:00
17°
 
2
08:00
19°
 
3
14:00
22°
7.1 mm
5
20:00
20°
9.0 mm
3
 05:14     21:22    Daglengte: 16:08 Donderdag 29 Jul
02:00
17°
1.1 mm
3
08:00
17°
 
5
Locatie info
Region: Hovedstaden
Latitude: 55.7301°N
Longitude: 12.3610°E
34 masl
Postcode: 2750
Temp/Neerslag /Baro Onweer/Dauwpunt
    Temp Baro 1h Neerslag Dauwpunt Wind UV Bewolking  
 05:08     21:27    Daglengte: 16:19 Vandaag
16:00
26°
1011.4 hPa
37%
14.8°
4
Windvlaag: 2.9 m/s
52%
17:00
25°
1011.1 hPa
36%
15.1°
4
Windvlaag: 1.4 m/s
53%
18:00
25°
1011.0 hPa
35%
15.9°
4
Windvlaag: 3.3 m/s
62%
19:00
25°
1010.8 hPa
16%
15.8°
4
Windvlaag: 4.4 m/s
41%
20:00
24°
1010.7 hPa   15.1°
3
Windvlaag: 5.4 m/s
53%
21:00
23°
1010.6 hPa   16.0°
2
Windvlaag: 4.9 m/s
61%
22:00
22°
1010.7 hPa   16.8°
2
Windvlaag: 3.8 m/s
52%
23:00
21°
1010.6 hPa   16.5°
2
Windvlaag: 3.3 m/s
53%
 05:10     21:25    Daglengte: 16:15 Morgen
00:00
21°
1010.5 hPa   16.8°
2
Windvlaag: 0.5 m/s
63%
01:00
20°
1010.1 hPa   17.1°
3
Windvlaag: 0.3 m/s
70%
02:00
20°
1010.0 hPa
19%
17.5°
3
Windvlaag: 0.2 m/s
62%
03:00
19°
1009.9 hPa
39%
18.2°
2
Windvlaag: -0.1 m/s
37%
04:00
19°
1009.6 hPa
39%
18.6°
1
Windvlaag: -0.9 m/s
48%
05:00
19°
1009.3 hPa
37%
18.8°
1
Windvlaag: 0 m/s
61%
06:00
19°
1009.0 hPa
11%
18.8°
1
Windvlaag: 0.6 m/s
73%
07:00
20°
1008.9 hPa
11%
18.3°
2
Windvlaag: 1.5 m/s
81%
08:00
20°
1008.9 hPa
36%
18.7°
2
Windvlaag: 4.2 m/s
71%
09:00
21°
1009.1 hPa 0.6 mm
39%
19.1°
2
Windvlaag: 5.2 m/s
39%
10:00
22°
1009.2 hPa
27%
19.1°
3
Windvlaag: 5.8 m/s
36%
11:00
23°
1009.2 hPa
43%
17.4°
3
Windvlaag: 5.6 m/s
40%
12:00
23°
1009.2 hPa 0.8 mm
76%
14.9°
4
Windvlaag: 4.9 m/s
52% warningclass
13:00
23°
1009.2 hPa 0.5 mm
82%
12.6°
4
Windvlaag: 4.6 m/s
22% warningclass
14:00
24°
1009.1 hPa 0.7 mm
82%
12.6°
4
Windvlaag: 5.5 m/s
49% warningclass
15:00
24°
1009.0 hPa 1.3 mm
82%
11.8°
4
Windvlaag: 5.8 m/s
31%
16:00
24°
1008.9 hPa
78%
12.7°
4
Windvlaag: 6.2 m/s
15%
17:00
24°
1008.7 hPa
78%
13.1°
5
Windvlaag: 7.2 m/s
16%
18:00
23°
1008.6 hPa
27%
13.9°
5
Windvlaag: 7.6 m/s
26%
19:00
22°
1008.5 hPa
17%
16.4°
4
Windvlaag: 7.9 m/s
16%
20:00
21°
1008.7 hPa
14%
16.1°
4
Windvlaag: 6.3 m/s
23%
21:00
20°
1009.0 hPa
14%
15.3°
3
Windvlaag: 6.3 m/s
42%
22:00
19°
1009.3 hPa
14%
15.1°
3
Windvlaag: 5.7 m/s
63%
23:00
19°
1009.4 hPa
14%
15.4°
3
Windvlaag: 5.2 m/s
43%
 05:12     21:24    Daglengte: 16:12 Woensdag 28 Jul
00:00
18°
1009.4 hPa
14%
15.7°
2
Windvlaag: 4.5 m/s
8%
01:00
18°
1009.2 hPa
14%
15.9°
2
Windvlaag: 4 m/s
6%
02:00
17°
1009.0 hPa
14%
16.1°
2
Windvlaag: 3.3 m/s
11%
03:00
16°
1008.6 hPa
14%
15.5°
2
Windvlaag: 3.1 m/s
19%
04:00
17°
1008.5 hPa
14%
16.0°
2
Windvlaag: 2.7 m/s
45%
05:00
16°
1008.3 hPa
14%
15.9°
2
Windvlaag: 2.3 m/s
64%
06:00
17°
1008.1 hPa
22%
16.4°
2
Windvlaag: 4.3 m/s
73%
07:00
18°
1008.0 hPa
76%
17.5°
2
Windvlaag: 5.6 m/s
74%
08:00
19°
1007.8 hPa
75%
16.9°
3
Windvlaag: 5 m/s
76%
09:00
20°
1007.8 hPa
81%
15.5°
3
Windvlaag: 5.1 m/s
65%
10:00
21°
1007.8 hPa 1.1 mm
82%
16.3°
4
Windvlaag: 5.8 m/s
41%
11:00
21°
1007.4 hPa 1.2 mm
92%
15.1°
4
Windvlaag: 7.6 m/s
74%
12:00
21°
1007.2 hPa 1.8 mm
78%
14.9°
4
Windvlaag: 7.7 m/s
31%
13:00
21°
1007.0 hPa 1.5 mm
33%
11.9°
5
Windvlaag: 7.6 m/s
64%
14:00
22°
1006.5 hPa 1.4 mm
69%
12.7°
5
Windvlaag: 7.7 m/s
85%
15:00
21°
1006.4 hPa 2.0 mm
30%
15.8°
5
Windvlaag: 8.2 m/s
68%
16:00
22°
1006.2 hPa
50%
13.8°
5
Windvlaag: 7.9 m/s
38%
17:00
21°
1006.1 hPa 2.6 mm
100%
13.5°
5
Windvlaag: 7.4 m/s
26%
18:00
21°
1005.7 hPa 1.2 mm
100%
12.6°
5
Windvlaag: 7.8 m/s
52%
19:00
20°
1005.4 hPa 1.4 mm
100%
11.4°
4
Windvlaag: 7.9 m/s
57%
20:00
20°
1005.2 hPa 1.8 mm
100%
11.5°
3
Windvlaag: 6.5 m/s
63%
21:00
19°
1005.1 hPa
100%
12.0°
3
Windvlaag: 6.2 m/s
50%
22:00
18°
1005.3 hPa 1.1 mm
100%
11.8°
4
Windvlaag: 6.4 m/s
86%
23:00
18°
1005.1 hPa
94%
14.5°
4
Windvlaag: 6.4 m/s
67%
 05:14     21:22    Daglengte: 16:08 Donderdag 29 Jul
00:00
18°
1004.8 hPa
42%
14.1°
4
Windvlaag: 6.7 m/s
24%
01:00
17°
1004.8 hPa
30%
14.6°
4
Windvlaag: 6.6 m/s
31%
02:00
17°
1004.5 hPa
34%
14.4°
3
Windvlaag: 6 m/s
22%
03:00
16°
1004.2 hPa
35%
14.3°
3
Windvlaag: 5.6 m/s
46%
04:00
16°
1003.9 hPa
35%
14.2°
4
Windvlaag: 4.9 m/s
18%
05:00
16°
1003.8 hPa
34%
14.6°
4
Windvlaag: 5.9 m/s
45%
06:00
16°
1003.6 hPa
32%
13.9°
4
Windvlaag: 6.6 m/s
7%
07:00
16°
1003.5 hPa
32%
13.9°
4
Windvlaag: 6.9 m/s
60%
08:00
17°
1003.3 hPa
35%
12.5°
5
Windvlaag: 8.5 m/s
54%
09:00
17°
1001.5 hPa
93%
10.5°
6
Windvlaag: 10.1 m/s
83%
10:00
18°
1001.1 hPa
97%
10.4°
6
Windvlaag: 12.4 m/s
86%
11:00
17°
1001.2 hPa 2.1 mm
100%
10.9°
7
Windvlaag: 11.2 m/s
100%
12:00
18°
1001.0 hPa 2.5 mm
100%
11.6°
7
Windvlaag: 11.3 m/s
95%
13:00
19°
1000.9 hPa 2.6 mm
95%
9.5°
8
Windvlaag: 14.4 m/s
93%
14:00
19°
1000.8 hPa
54%
5.7°
8
Windvlaag: 13.4 m/s
84%
15:00
18°
1002.0 hPa   -35.0°
11
Windvlaag: 16 m/s
100%
Temp/Neerslag /Baro Onweer/Dauwpunt
    Temp Baro Neerslag Dauwpunt Wind Bewolking  
 05:08     21:27    Daglengte: 16:19 Vandaag
17:00
25°
1011.1 hPa   15.1°
4
53%
20:00
24°
1010.7 hPa   15.1°
3
53%
23:00
21°
1010.6 hPa   16.5°
2
53%
 05:10     21:25    Daglengte: 16:15 Morgen
02:00
20°
1010.0 hPa   17.5°
3
62%
05:00
19°
1009.3 hPa   18.8°
1
61%
08:00
20°
1008.9 hPa   18.7°
2
71%
11:00
23°
1009.2 hPa 0.6 mm 17.4°
3
40%
14:00
24°
1009.1 hPa 1.9 mm 12.6°
4
49% warningclass
17:00
24°
1008.7 hPa 1.3 mm 13.1°
5
16%
20:00
21°
1008.7 hPa   16.1°
4
23%
23:00
19°
1009.4 hPa   15.4°
3
43%
 05:12     21:24    Daglengte: 16:12 Woensdag 28 Jul
02:00
17°
1009.0 hPa   16.1°
2
11%
05:00
16°
1008.3 hPa   15.9°
2
64%
08:00
19°
1007.8 hPa   16.9°
3
76%
11:00
21°
1007.4 hPa 2.3 mm 15.1°
4
74%
14:00
22°
1006.5 hPa 4.8 mm 12.7°
5
85%
17:00
21°
1006.1 hPa 4.6 mm 13.5°
5
26%
20:00
20°
1005.2 hPa 4.4 mm 11.5°
3
63%
23:00
18°
1005.1 hPa 1.1 mm 14.5°
4
67%
 05:14     21:22    Daglengte: 16:08 Donderdag 29 Jul
02:00
17°
1004.5 hPa   14.4°
3
22%
05:00
16°
1003.8 hPa   14.6°
4
45%
08:00
17°
1003.3 hPa   12.5°
5
54%
11:00
17°
1001.2 hPa 2.1 mm 10.9°
7
100%
14:00
19°
1000.8 hPa 6.6 mm 5.7°
8
84%
17:00
17°
1001.0 hPa 5.0 mm -7.8°
10
26%
20:00
16°
1001.8 hPa 5.4 mm -7.5°
10
17%
23:00
15°
1002.0 hPa 5.0 mm -7.5°
8
12%
 05:15     21:20    Daglengte: 16:05 Vrijdag 30 Jul
02:00
15°
1000.7 hPa 5.3 mm -7.2°
8
21%
05:00
15°
999.8 hPa 5.5 mm -6.5°
7
20%
08:00
16°
1000.1 hPa 5.6 mm -6.9°
8
20%
11:00
18°
1001.0 hPa 5.7 mm -8.3°
9
23%
14:00
20°
1001.1 hPa 5.9 mm -9.7°
9
17%
17:00
20°
1002.1 hPa 5.8 mm -8.2°
10
12%
20:00
18°
1003.0 hPa 11.4 mm -7.1°
8
13%
23:00
17°
1003.1 hPa 11.4 mm -7.4°
8
10%
 05:17     21:18    Daglengte: 16:01 Zaterdag 31 Jul
02:00
16°
1004.1 hPa 11.4 mm -6.9°
6
21%
05:00
15°
1003.7 hPa 11.4 mm -5.9°
5
24%
08:00
17°
1004.0 hPa 11.4 mm -6.5°
6
10%
11:00
20°
1003.9 hPa 11.5 mm -8.5°
6
19%
14:00
21°
1002.9 hPa 11.5 mm -7.3°
5
20%
17:00
19°
1002.0 hPa 7.4 mm -5.1°
5
24%
20:00
17°
1000.7 hPa 9.7 mm -5.3°
4
18%
23:00
15°
1000.7 hPa 8.8 mm -5.9°
4
14%
 05:19     21:16    Daglengte: 15:57 Zondag 01 Aug
02:00
14°
999.9 hPa 8.6 mm -6.7°
3
23%
05:00
14°
1000.0 hPa 8.5 mm -6.8°
4
19%
08:00
15°
1001.0 hPa 16.6 mm -8.2°
5
13%
11:00
18°
1001.8 hPa 16.6 mm -9.5°
6
13%
14:00
20°
1002.0 hPa 16.7 mm -10.7°
6
20%
17:00
19°
1002.4 hPa 17.2 mm 8.5°
6
1%
20:00
17°
1002.6 hPa 17.2 mm 9.2°
5
1%
23:00
15°
1003.0 hPa 17.2 mm 8.5°
4
1%
 05:21     21:14    Daglengte: 15:53 Maandag 02 Aug
02:00
13°
1003.3 hPa 17.2 mm 8.7°
5
1%
05:00
13°
1003.0 hPa 17.3 mm 8.6°
5
0%
08:00
15°
1003.3 hPa 17.5 mm 9.1°
7
0%
11:00
16°
1004.4 hPa 17.8 mm 9.5°
8
1%
14:00
17°
1005.4 hPa 35.9 mm 9.6°
8
1%
20:00
16°
1006.8 hPa 36.5 mm 8.1°
7
1%
 05:23     21:12    Daglengte: 15:49 Dinsdag 03 Aug
02:00
14°
1009.0 hPa 37.5 mm 9.5°
6
1%
08:00
14°
1010.1 hPa 38.6 mm 10.5°
5
1%
14:00
19°
1010.4 hPa 39.8 mm 8.9°
7
1%
20:00
18°
1010.3 hPa 40.0 mm 8.8°
4
1%
 05:25     21:10    Daglengte: 15:45 Woensdag 04 Aug
02:00
13°
1011.2 hPa 40.0 mm 10.2°
3
0%
08:00
16°
1009.3 hPa 40.0 mm 12.7°
6
1%
14:00
19°
1007.1 hPa 40.6 mm 12.9°
8
1%
20:00
18°
1004.9 hPa 42.0 mm 14.3°
7
1%
 05:26     21:08    Daglengte: 15:42 Donderdag 05 Aug
02:00
14°
1003.4 hPa 44.6 mm 13.1°
5
1%
08:00
17°
1001.5 hPa 44.8 mm 13.0°
7
0%
14:00
19°
1009.0 hPa 1.2 mm 11.9°
3
70%
20:00
18°
1007.9 hPa 0.9 mm 12.3°
2
76%
 05:28     21:06    Daglengte: 15:38 Vrijdag 06 Aug
02:00
16°
1007.4 hPa 0.6 mm 12.8°
2
71%
08:00
17°
1006.3 hPa 0.9 mm 12.9°
2
76%
14:00
19°
1005.7 hPa 0.5 mm 12.7°
3
80%
20:00
18°
1004.6 hPa 1.5 mm 13.2°
2
72%
 05:30     21:03    Daglengte: 15:33 Zaterdag 07 Aug
02:00
16°
1004.5 hPa 0.8 mm 12.9°
2
62%
08:00
16°
1004.1 hPa   13.1°
1
65%
14:00
19°
1004.1 hPa 1.5 mm 12.8°
2
64%
20:00
18°
1004.0 hPa 1.2 mm 12.9°
2
67%
 05:32     21:01    Daglengte: 15:29 Zondag 08 Aug
02:00
16°
1004.9 hPa 0.4 mm 12.9°
2
59%
08:00
16°
1005.1 hPa 0.6 mm 12.7°
3
57%
14:00
19°
1005.9 hPa 1.1 mm 12.7°
4
67%
20:00
18°
1006.3 hPa 1.7 mm 12.8°
3
62%
 05:34     20:59    Daglengte: 15:25 Maandag 09 Aug
02:00
15°
1007.4 hPa 0.7 mm 12.5°
3
53%
08:00
16°
1007.4 hPa 0.4 mm 12.3°
3
61%
14:00
19°
1008.3 hPa 1.2 mm 12.2°
4
67%
20:00
18°
1008.8 hPa 1.3 mm 12.9°
4
63%
 05:36     20:57    Daglengte: 15:21 Dinsdag 10 Aug
02:00
16°
1009.9 hPa 0.8 mm 12.7°
4
70%
08:00
16°
1010.2 hPa 0.6 mm 12.4°
4
68%
14:00
19°
1011.0 hPa 0.9 mm 11.9°
4
63%
  CAPE Lifted Index Hail Supercell Tornado SRH 3km CL BTM PRES CL TOP PRES Swiss DWD icon SMHI TS
 05:08     21:27    Daglengte: 16:19 Vandaag
16:00 274 J/kg -1.6 K 0 % 0 % 0 % 0 m²/s² 0 0 -1.15 3
17:00 232 J/kg -1.4 K 0 % 0 % 0 % 0 m²/s² 0 0 -0.53 3
18:00 241 J/kg -1.4 K 0 % 0 % 0 % 0 m²/s² 0 0 -0.44 3
19:00 187 J/kg -1.1 K 0 % 0 % 0 % 0 m²/s² 0 0 -0.05 3
20:00 320 J/kg -1.4 K 0 % 0 % 0 % 0 m²/s² 0 0 -0.59 3
21:00 392 J/kg -1.7 K 0 % 0 % 0 % 0 m²/s² 0 0 -0.8 3
22:00 356 J/kg -1.3 K 0 % 0 % 0 % 0 m²/s² 0 0 -0.55 3
23:00 222 J/kg -1.2 K 0 % 0 % 0 % 0 m²/s² 0 0 -0.09 3
 05:10     21:25    Daglengte: 16:15 Morgen
00:00 190 J/kg -0.8 K 0 % 0 % 0 % 0 m²/s² 0 0 0.37 3
01:00 228 J/kg -1.0 K 0 % 0 % 0 % 0 m²/s² 0 0 0.62 3
02:00 390 J/kg -1.9 K 0 % 0 % 0 % 0 m²/s² 0 0 -0.37 3
03:00 315 J/kg -1.4 K 0 % 0 % 0 % 0 m²/s² 0 0 0.64 80
04:00 434 J/kg -2.3 K 0 % 0 % 0 % 0 m²/s² 0 0 -0.71 80
05:00 511 J/kg -2.7 K 0 % 0 % 0 % 0 m²/s² 0 0 -0.93 45
06:00 573 J/kg -2.8 K 0 % 0 % 0 % 0 m²/s² 0 0 -0.76 3
07:00 659 J/kg -3.2 K 0 % 0 % 0 % 0 m²/s² 0 0 -1.04 3
08:00 839 J/kg -3.5 K 0 % 0 % 0 % 0 m²/s² 0 0 -1.19 80
09:00 1106 J/kg -4.4 K 0 % 0 % 0 % 0 m²/s² 0 0 -1.79 80
10:00 1267 J/kg -4.8 K 0 % 0 % 0 % 0 m²/s² 0 0 -2.49 3
11:00 1519 J/kg -5.3 K 0 % 0 % 0 % 0 m²/s² 0 0 -3.41 3
12:00 1517 J/kg -4.8 K 0 % 0 % 0 % 0 m²/s² 0 0 -3.21 80
13:00 1309 J/kg -3.9 K 0 % 0 % 0 % 0 m²/s² 0 0 -2.37 80
14:00 1114 J/kg -3.6 K 0 % 0 % 0 % 0 m²/s² 0 0 -2.19 80
15:00 927 J/kg -3.7 K 0 % 0 % 0 % 0 m²/s² 0 0 -1.99 3
16:00 660 J/kg -2.8 K 0 % 0 % 0 % 0 m²/s² 0 0 -0.85 2
17:00 301 J/kg -1.4 K 0 % 0 % 0 % 0 m²/s² 0 0 0.43 2
18:00 201 J/kg -0.6 K 0 % 0 % 0 % 0 m²/s² 0 0 0.75 2
19:00 453 J/kg -1.5 K 0 % 0 % 0 % 0 m²/s² 0 0 0.09 2
20:00 656 J/kg -2.3 K 0 % 0 % 0 % 0 m²/s² 0 0 -0.53 2
21:00 482 J/kg -1.8 K 0 % 0 % 0 % 0 m²/s² 0 0 0.21 3
22:00 419 J/kg -1.2 K 0 % 0 % 0 % 0 m²/s² 0 0 1.17 3
23:00 212 J/kg -0.2 K 0 % 0 % 0 % 0 m²/s² 0 0 2.53 2
 05:12     21:24    Daglengte: 16:12 Woensdag 28 Jul
00:00 109 J/kg 0.7 K 0 % 0 % 0 % 0 m²/s² 0 0 4 0
01:00 55 J/kg 0.3 K 0 % 0 % 0 % 0 m²/s² 0 0 3.51 0
02:00 36 J/kg 0.0 K 0 % 0 % 0 % 0 m²/s² 0 0 3.06 1
03:00 10 J/kg 0.4 K 0 % 0 % 0 % 0 m²/s² 0 0 3.04 1
04:00 0 J/kg 0.7 K 0 % 0 % 0 % 0 m²/s² 0 0 3.37 3
05:00 53 J/kg 0.7 K 0 % 0 % 0 % 0 m²/s² 0 0 2.53 3
06:00 72 J/kg 0.4 K 0 % 0 % 0 % 0 m²/s² 0 0 0.91 3
07:00 45 J/kg 0.7 K 0 % 0 % 0 % 0 m²/s² 0 0 0.73 3
08:00 54 J/kg 0.2 K 0 % 0 % 0 % 0 m²/s² 0 0 0.77 3
09:00 94 J/kg -0.4 K 0 % 0 % 0 % 0 m²/s² 0 0 0.2 3
10:00 116 J/kg -0.4 K 0 % 0 % 0 % 0 m²/s² 0 0 0.29 3
11:00 419 J/kg -1.7 K 0 % 0 % 0 % 0 m²/s² 0 0 -1.19 2
12:00 496 J/kg -2.0 K 0 % 0 % 0 % 0 m²/s² 0 0 -1.16 3
13:00 237 J/kg -1.1 K 0 % 0 % 0 % 0 m²/s² 0 0 -0.11 3
14:00 429 J/kg -1.9 K 0 % 0 % 0 % 0 m²/s² 0 0 -0.97 3
15:00 567 J/kg -2.4 K 0 % 0 % 0 % 0 m²/s² 0 0 -1.35 3
16:00 426 J/kg -1.6 K 0 % 0 % 0 % 0 m²/s² 0 0 -0.31 2
17:00 364 J/kg -1.1 K 0 % 0 % 0 % 0 m²/s² 0 0 -0.17 2
18:00 201 J/kg -0.5 K 0 % 0 % 0 % 0 m²/s² 0 0 1.18 2
19:00 172 J/kg -0.6 K 0 % 0 % 0 % 0 m²/s² 0 0 1.59 3
20:00 379 J/kg -1.5 K 0 % 0 % 0 % 0 m²/s² 0 0 0.51 3
21:00 476 J/kg -1.9 K 0 % 0 % 0 % 0 m²/s² 0 0 0.23 3
22:00 403 J/kg -1.9 K 0 % 0 % 0 % 0 m²/s² 0 0 -1.15 3
23:00 277 J/kg -1.3 K 0 % 0 % 0 % 0 m²/s² 0 0 0.14 3
 05:14     21:22    Daglengte: 16:08 Donderdag 29 Jul
00:00 153 J/kg -1.4 K 0 % 0 % 0 % 0 m²/s² 0 0 1.36 3
01:00 388 J/kg -2.1 K 0 % 0 % 0 % 0 m²/s² 0 0 -0.36 2
02:00 424 J/kg -2.3 K 0 % 0 % 0 % 0 m²/s² 0 0 -1.73 2
03:00 459 J/kg -2.7 K 0 % 0 % 0 % 0 m²/s² 0 0 -1.59 3
04:00 517 J/kg -2.6 K 0 % 0 % 0 % 0 m²/s² 0 0 -1.67 2
05:00 335 J/kg -0.7 K 0 % 0 % 0 % 0 m²/s² 0 0 0.95 2
06:00 131 J/kg 0.8 K 0 % 0 % 0 % 0 m²/s² 0 0 5.69 2
07:00 292 J/kg -0.1 K 0 % 0 % 0 % 0 m²/s² 0 0 2.06 3
08:00 268 J/kg 0.5 K 0 % 0 % 0 % 0 m²/s² 0 0 1.19 3
09:00 189 J/kg 1.4 K 0 % 0 % 0 % 0 m²/s² 0 0 1.79 3
10:00 257 J/kg 1.2 K 0 % 0 % 0 % 0 m²/s² 0 0 1.92 3
11:00 354 J/kg 0.4 K 0 % 0 % 0 % 0 m²/s² 0 0 1.93 80
12:00 384 J/kg 0.5 K 0 % 0 % 0 % 0 m²/s² 0 0 2.33 80
13:00 228 J/kg 2.6 K 0 % 0 % 0 % 0 m²/s² 0 0 6.62 3
14:00 104 J/kg 4.0 K 0 % 0 % 0 % 0 m²/s² 0 0 8.44 3
15:00 0 J/kg 0.0 K 0 % 0 % 0 % 0 m²/s² 0 0 13.83
Temp Baro Wind Neerslag
  EWN Forecast EWN WRFDA DWD ICON FMI HIRLAM MET Norway GFSWXSIM
 05:08     21:27    Daglengte: 16:19 Vandaag
17:00 25.2° 1011.1 hPa 4.1 m/s 0.0 mm 25.8° 1010.9 hPa 6.7 m/s 0.0 mm 24.8° 1011.4 hPa 4.0 m/s -1.7 mm 26.0° 1010.8 hPa 4.4 m/s 0.0 mm 25.9° 1011.1 hPa 5.9 m/s 28.2° 1011.0 hPa 5.0 m/s 0.0 mm
20:00 24.1° 1010.7 hPa 3.0 m/s 0.0 mm 23.7° 1010.5 hPa 4.5 m/s 0.0 mm 23.7° 1010.6 hPa 2.6 m/s 0.0 mm 24.5° 1010.5 hPa 4.1 m/s 0.0 mm 23.2° 1009.9 hPa 4.3 m/s 25.6° 1011.0 hPa 4.0 m/s 0.0 mm
23:00 21.1° 1010.6 hPa 1.7 m/s 0.0 mm 21.1° 1010.1 hPa 2.9 m/s 0.0 mm 20.2° 1010.9 hPa 1.7 m/s 0.0 mm 21.6° 1010.4 hPa 2.0 m/s 0.0 mm 20.5° 1010.4 hPa 2.7 m/s 21.4° 1010.0 hPa 3.0 m/s 0.0 mm
 05:10     21:25    Daglengte: 16:15 Morgen
02:00 19.7° 1010.0 hPa 2.5 m/s 0.0 mm 18.5° 1009.5 hPa 2.7 m/s 0.0 mm 19.2° 1010.1 hPa 1.5 m/s 0.0 mm 20.6° 1009.2 hPa 3.3 m/s 0.0 mm 18.2° 1010.0 hPa 1.5 m/s 19.6° 1010.0 hPa 2.0 m/s 0.0 mm
05:00 19.1° 1009.3 hPa 1.4 m/s 0.0 mm 17.6° 1008.5 hPa 2.3 m/s 0.0 mm 18.4° 1010.0 hPa 1.1 m/s 1.5 mm 19.4° 1008.3 hPa 2.7 m/s 0.0 mm 17.7° 1009.2 hPa 1.3 m/s 19.2° 1009.0 hPa 1.0 m/s 0.0 mm
08:00 20.4° 1008.9 hPa 2.2 m/s 0.0 mm 20.6° 1007.7 hPa 2.6 m/s 0.0 mm 20.2° 1009.7 hPa 1.9 m/s 0.5 mm 21.1° 1008.2 hPa 4.1 m/s 0.0 mm 20.6° 1009.2 hPa 2.7 m/s 21.3° 1009.0 hPa 2.0 m/s 0.0 mm
11:00 23.1° 1009.2 hPa 3.1 m/s 0.6 mm 24.1° 1008.0 hPa 3.2 m/s 0.0 mm 22.6° 1009.6 hPa 2.7 m/s 1.0 mm 23.9° 1008.4 hPa 4.1 m/s 0.0 mm 24.5° 1009.1 hPa 3.6 m/s 23.3° 1009.0 hPa 3.0 m/s 0.0 mm
14:00 23.9° 1009.1 hPa 3.6 m/s 1.9 mm 24.6° 1008.1 hPa 2.5 m/s 2.5 mm 22.9° 1009.5 hPa 3.5 m/s 1.1 mm 26.1° 1008.4 hPa 4.8 m/s 0.0 mm 25.9° 1009.1 hPa 5.2 m/s 24.5° 1009.0 hPa 3.0 m/s 0.3 mm
17:00 23.6° 1008.7 hPa 4.5 m/s 1.3 mm 26.3° 1007.3 hPa 3.3 m/s 5.6 mm 23.1° 1009.0 hPa 3.9 m/s 0.2 mm 25.2° 1008.2 hPa 5.2 m/s 0.0 mm 24.9° 1009.0 hPa 5.6 m/s 24.3° 1009.0 hPa 3.0 m/s 0.5 mm
20:00 21.4° 1008.7 hPa 4.1 m/s 0.0 mm 23.9° 1007.5 hPa 4.3 m/s 6.3 mm 21.2° 1009.3 hPa 3.6 m/s 0.0 mm 22.0° 1008.2 hPa 4.1 m/s 0.0 mm 21.5° 1009.0 hPa 4.6 m/s 22.0° 1009.0 hPa 4.0 m/s 0.5 mm
23:00 18.7° 1009.4 hPa 2.7 m/s 0.0 mm 20.0° 1008.2 hPa 2.8 m/s 6.5 mm 18.0° 1009.6 hPa 1.8 m/s 0.0 mm 19.3° 1009.2 hPa 2.8 m/s 0.0 mm 17.6° 1010.0 hPa 3.1 m/s 19.4° 1009.0 hPa 3.0 m/s 0.0 mm
 05:12     21:24    Daglengte: 16:12 Woensdag 28 Jul
02:00 17.0° 1009.0 hPa 1.9 m/s 0.0 mm 17.3° 1007.8 hPa 2.1 m/s 6.5 mm 16.3° 1009.3 hPa 1.9 m/s 0.0 mm 17.0° 1009.0 hPa 1.5 m/s 0.0 mm 16.8° 1009.8 hPa 2.3 m/s 18.6° 1010.0 hPa 3.0 m/s 0.0 mm
05:00 16.4° 1008.3 hPa 1.6 m/s 0.0 mm 16.3° 1007.1 hPa 1.3 m/s 6.5 mm 15.7° 1008.6 hPa 1.3 m/s 0.0 mm 16.3° 1008.4 hPa 1.6 m/s 0.0 mm 16.3° 1008.5 hPa 2.5 m/s 18.2° 1009.0 hPa 3.0 m/s 0.2 mm
08:00 19.1° 1007.8 hPa 3.0 m/s 0.0 mm 17.8° 1006.5 hPa 1.7 m/s 8.5 mm 19.2° 1007.7 hPa 2.2 m/s 0.0 mm 20.1° 1008.3 hPa 3.3 m/s 0.0 mm 19.7° 1008.2 hPa 4.1 m/s 18.5° 1008.0 hPa 4.0 m/s 0.3 mm
11:00 20.6° 1007.4 hPa 4.2 m/s 2.3 mm 20.7° 1006.1 hPa 3.7 m/s 10.6 mm 21.4° 1007.5 hPa 4.6 m/s 0.3 mm 23.5° 1007.8 hPa 4.8 m/s 20.4° 1008.0 hPa 4.0 m/s 0.0 mm
14:00 21.8° 1006.5 hPa 4.9 m/s 4.8 mm 23.2° 1005.0 hPa 6.5 m/s 12.3 mm 21.7° 1006.6 hPa 4.7 m/s 0.0 mm 22.9° 1007.5 hPa 5.5 m/s 22.6° 1007.0 hPa 5.0 m/s 0.5 mm
17:00 21.5° 1006.1 hPa 4.5 m/s 4.6 mm 22.2° 1005.6 hPa 5.1 m/s 14.1 mm 21.6° 1006.0 hPa 4.6 m/s 0.1 mm 22.1° 1007.0 hPa 5.7 m/s 21.3° 1007.0 hPa 5.0 m/s 1.0 mm
20:00 19.6° 1005.2 hPa 3.4 m/s 4.4 mm 22.2° 1005.0 hPa 3.2 m/s 15.1 mm 19.3° 1004.6 hPa 3.7 m/s 0.6 mm 20.6° 1006.7 hPa 5.2 m/s 20.0° 1007.0 hPa 5.0 m/s 0.8 mm
23:00 18.2° 1005.1 hPa 4.3 m/s 1.1 mm 18.6° 1005.0 hPa 4.4 m/s 15.4 mm 17.6° 1004.0 hPa 4.5 m/s 0.2 mm 16.5° 1006.9 hPa 3.9 m/s 17.8° 1007.0 hPa 5.0 m/s 0.5 mm
 05:14     21:22    Daglengte: 16:08 Donderdag 29 Jul
02:00 16.6° 1004.5 hPa 3.3 m/s 0.0 mm 17.0° 1004.6 hPa 3.2 m/s 16.0 mm 15.9° 1003.2 hPa 3.3 m/s 0.0 mm 15.4° 1006.0 hPa 3.4 m/s 16.7° 1006.0 hPa 4.0 m/s 0.0 mm
05:00 15.8° 1003.8 hPa 3.7 m/s 0.0 mm 15.8° 1004.0 hPa 3.3 m/s 16.3 mm 15.2° 1002.3 hPa 4.1 m/s 0.0 mm 15.0° 1004.6 hPa 4.1 m/s 16.1° 1005.0 hPa 5.0 m/s 0.0 mm
08:00 17.1° 1003.3 hPa 5.2 m/s 0.0 mm 18.4° 1003.8 hPa 5.5 m/s 16.4 mm 16.4° 1001.1 hPa 5.2 m/s 0.0 mm 16.5° 1003.0 hPa 5.4 m/s 15.7° 1004.0 hPa 6.0 m/s 1.2 mm
11:00 17.4° 1001.2 hPa 6.8 m/s 2.1 mm 19.4° 1002.7 hPa 7.3 m/s 16.8 mm 16.9° 1000.9 hPa 6.7 m/s 0.3 mm 17.6° 1002.6 hPa 8.6 m/s 16.0° 1003.0 hPa 8.0 m/s 1.6 mm
14:00 18.6° 1000.8 hPa 8.2 m/s 6.6 mm 21.2° 1002.0 hPa 10.1 m/s 21.9 mm 17.9° 1000.5 hPa 7.8 m/s 0.4 mm 18.6° 1002.3 hPa 10.1 m/s 17.5° 1002.0 hPa 10.0 m/s 1.0 mm
17:00 16.5° 1001.0 hPa 10.0 m/s 5.0 mm 16.5° 1001.0 hPa 9.7 m/s 8.7 mm 16.5° 1001.0 hPa 11.0 m/s 1.3 mm
20:00 16.0° 1001.8 hPa 9.7 m/s 5.4 mm 16.2° 1001.7 hPa 9.3 m/s 9.6 mm 15.9° 1002.0 hPa 11.0 m/s 1.2 mm
23:00 14.9° 1002.0 hPa 7.8 m/s 5.0 mm 14.8° 1002.1 hPa 7.4 m/s 9.7 mm 15.2° 1002.0 hPa 9.0 m/s 0.3 mm
 05:15     21:20    Daglengte: 16:05 Vrijdag 30 Jul
02:00 14.8° 1000.7 hPa 7.5 m/s 5.3 mm 15.2° 1000.6 hPa 7.0 m/s 9.8 mm 14.7° 1001.0 hPa 9.0 m/s 0.7 mm
05:00 14.7° 999.8 hPa 6.9 m/s 5.5 mm 14.9° 999.7 hPa 6.6 m/s 10.2 mm 14.7° 1000.0 hPa 8.0 m/s 0.8 mm
08:00 15.6° 1000.1 hPa 8.0 m/s 5.6 mm 16.3° 1000.5 hPa 7.6 m/s 10.7 mm 15.3° 1000.0 hPa 9.0 m/s 0.5 mm
11:00 17.9° 1001.0 hPa 8.8 m/s 5.7 mm 20.3° 1001.1 hPa 8.7 m/s 10.9 mm 17.1° 1001.0 hPa 9.0 m/s 0.5 mm
14:00 19.5° 1001.1 hPa 9.2 m/s 5.9 mm 22.2° 1001.4 hPa 9.8 m/s 11.4 mm 18.6° 1001.0 hPa 9.0 m/s 0.5 mm
17:00 20.3° 1002.1 hPa 9.8 m/s 5.8 mm 21.1° 1002.4 hPa 9.7 m/s 11.4 mm 20.0° 1002.0 hPa 10.0 m/s 0.3 mm
20:00 18.4° 1003.0 hPa 8.4 m/s 11.4 mm 18.2° 1003.0 hPa 8.3 m/s 11.4 mm 19.1° 1003.0 hPa 9.0 m/s 0.0 mm
23:00 17.1° 1003.1 hPa 7.9 m/s 11.4 mm 17.3° 1003.5 hPa 7.5 m/s 11.4 mm 17.1° 1003.0 hPa 9.0 m/s 0.0 mm
 05:17     21:18    Daglengte: 16:01 Zaterdag 31 Jul
02:00 15.6° 1004.1 hPa 6.4 m/s 11.4 mm 15.4° 1004.2 hPa 5.9 m/s 11.4 mm 16.3° 1004.0 hPa 8.0 m/s 0.0 mm
05:00 14.8° 1003.7 hPa 4.6 m/s 11.4 mm 14.3° 1003.6 hPa 4.2 m/s 11.4 mm 16.4° 1004.0 hPa 6.0 m/s 0.0 mm
08:00 17.0° 1004.0 hPa 5.8 m/s 11.4 mm 16.9° 1004.0 hPa 5.7 m/s 11.4 mm 17.1° 1004.0 hPa 6.0 m/s 0.0 mm
11:00 19.8° 1003.9 hPa 5.8 m/s 11.5 mm 19.7° 1003.9 hPa 5.7 m/s 11.5 mm 20.1° 1004.0 hPa 6.0 m/s 0.0 mm
14:00 20.8° 1002.9 hPa 5.1 m/s 11.5 mm 20.5° 1002.9 hPa 5.5 m/s 11.5 mm 21.5° 1003.0 hPa 5.0 m/s 0.0 mm
17:00 19.1° 1002.0 hPa 4.7 m/s 7.4 mm 18.8° 1002.0 hPa 4.7 m/s 13.6 mm 19.8° 1002.0 hPa 5.0 m/s 1.2 mm
20:00 17.4° 1000.7 hPa 4.5 m/s 9.7 mm 18.1° 1000.6 hPa 4.3 m/s 16.2 mm 17.2° 1001.0 hPa 5.0 m/s 3.1 mm
23:00 14.8° 1000.7 hPa 3.5 m/s 8.8 mm 14.3° 1000.6 hPa 3.4 m/s 16.4 mm 16.3° 1001.0 hPa 4.0 m/s 1.3 mm
 05:19     21:16    Daglengte: 15:57 Zondag 01 Aug
02:00 14.4° 999.9 hPa 3.5 m/s 8.6 mm 14.0° 999.8 hPa 3.3 m/s 16.5 mm 15.6° 1000.0 hPa 4.0 m/s 0.7 mm
05:00 13.9° 1000.0 hPa 4.1 m/s 8.5 mm 13.5° 1000.0 hPa 3.8 m/s 16.6 mm 15.1° 1000.0 hPa 5.0 m/s 0.5 mm
08:00 15.4° 1001.0 hPa 4.9 m/s 16.6 mm 15.3° 1001.2 hPa 4.9 m/s 16.6 mm 15.6° 1001.0 hPa 5.0 m/s 0.0 mm
11:00 18.3° 1001.8 hPa 5.8 m/s 16.6 mm 18.2° 1001.7 hPa 5.7 m/s 16.6 mm 18.6° 1002.0 hPa 6.0 m/s 0.0 mm
14:00 19.9° 1002.0 hPa 5.8 m/s 16.7 mm 19.9° 1002.0 hPa 5.7 m/s 16.7 mm 20.0° 1002.0 hPa 6.0 m/s 0.0 mm
17:00 19.5° 1002.4 hPa 5.6 m/s 17.2 mm 19.5° 1002.4 hPa 5.6 m/s 17.2 mm
20:00 17.5° 1002.6 hPa 5.1 m/s 17.2 mm 17.5° 1002.6 hPa 5.1 m/s 17.2 mm
23:00 14.5° 1003.0 hPa 4.5 m/s 17.2 mm 14.5° 1003.0 hPa 4.5 m/s 17.2 mm
 05:21     21:14    Daglengte: 15:53 Maandag 02 Aug
02:00 12.8° 1003.3 hPa 4.9 m/s 17.2 mm 12.8° 1003.3 hPa 4.9 m/s 17.2 mm
05:00 12.7° 1003.0 hPa 5.3 m/s 17.3 mm 12.7° 1003.0 hPa 5.3 m/s 17.3 mm
08:00 14.6° 1003.3 hPa 7.0 m/s 17.5 mm 14.6° 1003.3 hPa 7.0 m/s 17.5 mm
11:00 16.0° 1004.4 hPa 8.3 m/s 17.8 mm 16.0° 1004.4 hPa 8.3 m/s 17.8 mm
14:00 17.4° 1005.4 hPa 8.2 m/s 18.1 mm 17.4° 1005.4 hPa 8.2 m/s 18.1 mm
20:00 16.4° 1006.8 hPa 7.4 m/s 18.3 mm 16.4° 1006.8 hPa 7.4 m/s 18.3 mm
 05:23     21:12    Daglengte: 15:49 Dinsdag 03 Aug
02:00 13.8° 1009.0 hPa 6.4 m/s 19.0 mm 13.8° 1009.0 hPa 6.4 m/s 19.0 mm
08:00 14.5° 1010.1 hPa 5.4 m/s 19.5 mm 14.5° 1010.1 hPa 5.4 m/s 19.5 mm
14:00 19.0° 1010.4 hPa 7.0 m/s 20.0 mm 19.0° 1010.4 hPa 7.0 m/s 20.0 mm
20:00 18.0° 1010.3 hPa 3.9 m/s 20.0 mm 18.0° 1010.3 hPa 3.9 m/s 20.0 mm
 05:25     21:10    Daglengte: 15:45 Woensdag 04 Aug
02:00 12.8° 1011.2 hPa 3.5 m/s 20.0 mm 12.8° 1011.2 hPa 3.5 m/s 20.0 mm
08:00 16.3° 1009.3 hPa 5.6 m/s 20.0 mm 16.3° 1009.3 hPa 5.6 m/s 20.0 mm
14:00 19.0° 1007.1 hPa 7.5 m/s 20.4 mm 19.0° 1007.1 hPa 7.5 m/s 20.4 mm
20:00 17.9° 1004.9 hPa 6.7 m/s 21.2 mm 17.9° 1004.9 hPa 6.7 m/s 21.2 mm
 05:26     21:08    Daglengte: 15:42 Donderdag 05 Aug
02:00 14.2° 1003.4 hPa 4.7 m/s 22.3 mm 14.2° 1003.4 hPa 4.7 m/s 22.3 mm
08:00 16.6° 1001.5 hPa 6.6 m/s 22.4 mm 16.6° 1001.5 hPa 6.6 m/s 22.4 mm
14:00 19.3° 1009.0 hPa 3.4 m/s 1.2 mm
20:00 18.2° 1007.9 hPa 2.2 m/s 0.9 mm
 05:28     21:06    Daglengte: 15:38 Vrijdag 06 Aug
02:00 16.2° 1007.4 hPa 1.8 m/s 0.6 mm
08:00 16.7° 1006.3 hPa 1.6 m/s 0.9 mm
14:00 19.4° 1005.7 hPa 2.6 m/s 0.5 mm
20:00 18.3° 1004.6 hPa 2.0 m/s 1.5 mm
 05:30     21:03    Daglengte: 15:33 Zaterdag 07 Aug
02:00 15.8° 1004.5 hPa 1.7 m/s 0.8 mm
08:00 16.5° 1004.1 hPa 1.4 m/s 0.0 mm
14:00 19.0° 1004.1 hPa 1.5 m/s 1.5 mm
20:00 17.9° 1004.0 hPa 1.7 m/s 1.2 mm
 05:32     21:01    Daglengte: 15:29 Zondag 08 Aug
02:00 15.6° 1004.9 hPa 2.3 m/s 0.4 mm
08:00 16.1° 1005.1 hPa 2.7 m/s 0.6 mm
14:00 19.1° 1005.9 hPa 3.7 m/s 1.1 mm
20:00 17.9° 1006.3 hPa 3.2 m/s 1.7 mm
 05:34     20:59    Daglengte: 15:25 Maandag 09 Aug
02:00 15.4° 1007.4 hPa 3.1 m/s 0.7 mm
08:00 15.9° 1007.4 hPa 2.6 m/s 0.4 mm
14:00 18.6° 1008.3 hPa 3.9 m/s 1.2 mm
20:00 17.5° 1008.8 hPa 3.6 m/s 1.3 mm
 05:36     20:57    Daglengte: 15:21 Dinsdag 10 Aug
02:00 15.5° 1009.9 hPa 4.0 m/s 0.8 mm
08:00 16.0° 1010.2 hPa 4.0 m/s 0.6 mm
14:00 18.8° 1011.0 hPa 4.2 m/s 0.9 mm
FMI Hirlam - 7.5 km EWN WRFDA - 12 km DWD ICON - 7 km GFS - 25 km Basiskaart